Wind_Speed
3 2 2 2 3 3 2 3 3 3 3 4 5 6 6 6 7 8 8 8 9 9 9 9 10 10 12 12 12 13 13 12 12 13 14 13 14 14 14 15 15 15 14
3 2 2 2 2 2 2 2 2 2 2 3 3 5 6 5 6 7 7 8 8 8 8 9 10 10 10 11 12 13 13 13 13 13 13 14 14 14 14 14 15 15 15
3 3 2 2 2 2 2 2 1 1 1 2 2 3 4 4 4 5 7 7 8 8 8 8 9 9 9 10 10 11 13 13 12 12 13 14 14 15 16 16 15 15 15
2 3 2 2 2 2 1 1 2 1 1 1 1 2 3 3 4 5 6 6 7 7 7 7 8 8 8 9 10 11 12 12 12 13 13 13 13 14 15 16 16 15 15
2 3 2 2 2 1 1 1 2 1 1 1 0 1 2 2 3 4 4 5 5 6 6 7 7 7 8 9 10 10 10 11 12 13 12 13 13 13 14 15 15 15 15
2 2 2 2 2 2 1 1 1 1 1 1 1 1 1 1 2 2 3 4 4 5 6 6 6 7 8 8 9 9 10 10 10 11 11 11 11 12 13 14 15 15 15
2 2 2 3 2 2 2 2 2 1 1 1 1 1 2 1 2 2 2 3 4 5 6 6 6 6 7 7 7 8 8 9 9 9 10 11 10 11 11 12 13 14 14
1 2 2 2 2 2 2 2 2 2 1 1 1 1 1 1 2 2 3 3 3 4 5 5 5 6 7 7 7 7 8 8 8 9 10 10 10 10 10 11 12 13 13
1 1 2 3 3 2 2 2 2 2 2 2 2 2 2 2 2 2 3 3 4 4 5 5 6 7 7 7 7 8 9 9 9 9 10 11 11 11 11 12 13 13 14
1 1 1 2 2 2 2 2 2 2 2 2 2 2 2 3 3 2 3 3 4 5 5 5 6 6 7 8 8 9 10 11 11 11 10 11 12 13 13 13 14 15 15
1 2 1 2 2 2 2 2 2 2 2 3 3 3 3 3 3 4 4 4 5 5 6 6 7 7 8 8 9 10 11 12 12 13 12 12 12 13 15 15 15 16 17
2 2 2 1 1 1 1 1 1 2 2 3 3 3 4 4 5 5 6 6 6 7 7 8 8 8 9 9 10 11 11 12 13 13 13 13 13 14 14 16 17 18 19
2 2 2 2 2 2 2 2 2 2 3 4 4 4 5 5 5 6 7 7 7 8 8 9 9 10 10 10 11 12 13 13 13 14 14 15 15 15 16 17 18 19 20
3 3 3 3 3 3 3 3 3 4 4 5 5 6 6 6 6 6 7 8 9 9 9 9 10 11 11 12 12 13 13 14 14 15 15 16 16 17 18 19 19 20 21
4 4 3 3 3 4 4 4 5 5 5 6 6 6 6 6 7 7 7 8 8 8 9 10 11 11 12 13 14 14 14 15 16 17 17 18 19 19 20 21 22 23 24
4 4 5 5 5 5 5 5 6 6 6 6 6 7 7 7 7 7 7 8 9 10 11 12 12 12 13 14 15 16 17 17 17 18 19 20 21 22 23 24 25 26 26
4 5 5 5 5 5 6 6 6 7 7 7 7 8 8 8 8 9 10 11 11 12 13 14 14 14 15 15 16 17 18 19 20 21 22 23 24 24 25 26 26 27 28
6 6 6 6 6 6 6 7 7 7 8 8 8 9 9 10 10 11 12 13 13 14 14 15 16 16 17 17 18 19 20 20 22 22 23 25 26 27 27 28 28 29 30
7 8 7 8 8 8 8 8 9 9 9 10 10 10 11 12 13 13 14 14 15 15 16 16 17 18 19 20 21 22 22 23 24 25 26 27 27 27 28 29 30 30 31
8 9 9 9 9 9 9 10 10 10 11 12 13 13 14 14 15 15 15 16 16 17 17 17 18 20 20 21 22 23 23 25 25 26 27 28 28 28 28 29 30 31 32
9 9 10 10 11 11 12 12 12 13 13 14 14 15 15 16 16 16 17 18 18 18 19 19 20 21 22 22 23 23 25 26 26 27 28 28 29 29 30 31 31 32 32
11 11 11 11 12 12 13 14 14 14 14 14 15 15 16 17 17 18 18 19 19 20 20 20 21 22 22 23 24 25 25 26 26 27 28 29 30 31 31 31 32 32 33
12 12 12 13 13 14 14 14 14 14 14 15 16 17 18 18 18 19 19 20 20 20 21 22 22 23 24 24 25 26 27 27 27 27 28 29 30 31 32 33 33 34 35
13 13 14 14 15 15 14 14 15 15 16 17 17 18 18 18 19 20 21 21 22 22 23 24 24 25 25 26 27 27 28 28 29 30 30 31 32 33 34 35 36 36 37
14 15 14 15 15 16 16 16 16 16 17 17 18 19 19 20 21 22 22 23 24 25 26 26 26 27 28 29 29 30 30 30 31 32 32 33 33 35 36 37 37 38 39
15 15 16 16 16 17 17 18 18 18 18 19 20 21 21 22 23 23 24 25 26 27 27 28 28 29 30 30 31 31 32 32 32 33 34 35 36 36 36 38 39 40 40
Wind_Direction
323 323 324 315 310 303 305 302 287 267 257 251 248 242 239 241 239 240 242 244 242 243 245 245 246 247 248 247 244 243 244 248 252 258 258 256 256 258 256 256 256 258 261
345 332 319 320 321 314 310 310 299 278 268 262 250 243 239 240 238 238 240 241 244 245 245 246 247 246 248 249 246 246 247 250 253 254 254 255 258 259 257 257 258 257 259
351 352 334 325 329 326 324 330 334 321 297 271 249 243 240 242 240 243 241 240 245 245 245 248 245 245 249 250 251 252 251 253 253 254 255 257 260 258 256 257 257 254 256
0 355 349 346 338 338 347 347 352 343 316 311 222 222 243 252 244 245 244 238 240 243 244 246 244 245 251 253 253 256 252 251 252 254 256 259 260 261 260 255 254 253 255
357 353 356 352 3 4 347 344 354 2 12 14 22 245 240 240 240 247 243 237 240 239 240 245 248 247 253 259 257 257 253 251 252 255 258 260 263 262 259 254 250 250 254
358 3 15 7 8 23 12 1 356 352 351 343 336 282 268 252 252 259 251 248 244 244 247 256 259 257 260 264 260 257 259 258 255 255 259 263 264 263 258 254 251 251 254
2 24 31 28 28 20 5 2 12 3 344 331 320 304 297 285 270 262 270 273 260 256 257 260 260 260 264 260 258 260 260 261 256 257 261 261 263 264 262 256 250 252 255
3 28 38 31 20 8 4 5 4 358 352 357 329 323 310 290 278 275 282 277 272 270 267 263 260 262 264 264 262 263 263 260 258 257 259 261 261 261 258 254 251 255 257
358 27 43 31 20 7 359 5 10 6 359 351 341 317 310 306 287 285 285 279 275 274 265 264 263 266 272 273 269 269 269 266 266 265 262 263 262 260 260 257 257 259 262
345 352 12 8 5 3 2 1 359 360 360 355 344 333 317 301 288 287 284 279 277 278 277 276 275 275 277 274 273 272 273 273 271 273 269 265 264 264 264 261 261 263 265
310 326 346 3 354 349 351 349 348 351 348 342 336 330 325 319 312 308 299 291 287 285 284 283 283 282 280 278 277 276 277 279 277 275 275 267 265 266 266 265 265 265 267
282 296 304 333 337 338 334 326 330 339 339 335 330 325 322 314 310 307 302 294 287 286 286 285 282 283 283 282 282 282 283 283 282 281 280 273 268 268 267 268 269 270 273
275 286 282 299 312 321 320 314 310 320 317 318 318 316 316 317 308 303 299 296 292 292 293 292 289 289 288 287 286 286 286 283 281 281 281 279 274 272 271 273 275 276 277
259 272 275 288 301 314 316 315 316 314 311 312 313 313 311 311 309 306 300 300 296 293 295 295 294 292 290 288 288 288 287 285 283 281 281 281 281 279 278 278 278 278 278
245 256 264 275 292 304 306 308 310 312 313 315 315 317 316 314 311 310 302 302 303 301 302 300 297 294 293 292 290 289 288 287 286 284 284 283 284 285 285 283 283 282 282
251 261 265 269 277 284 290 296 302 301 306 309 312 315 316 317 316 314 309 305 304 304 304 302 300 298 297 296 294 292 290 288 287 287 287 286 285 286 286 286 287 287 285
257 265 273 274 279 284 289 293 301 300 301 303 304 304 306 308 307 307 307 304 303 302 301 300 298 297 297 295 294 292 291 290 289 288 288 287 287 287 287 287 288 287 286
264 268 273 274 279 287 292 295 296 299 300 302 301 301 301 302 304 305 304 304 303 301 298 297 296 296 296 295 295 293 292 291 291 290 291 291 290 289 288 288 287 286 286
268 273 276 277 277 281 288 293 295 295 296 300 300 300 300 301 302 304 304 303 303 302 299 297 297 297 297 297 295 294 292 291 290 291 291 291 291 291 289 289 288 287 287
271 275 277 280 281 281 286 291 293 293 294 296 296 297 298 300 299 301 301 302 302 301 300 299 298 298 298 296 295 294 293 291 291 292 292 293 292 292 292 292 292 291 289
273 274 276 280 283 285 287 288 289 292 294 295 297 297 297 299 300 299 300 300 300 300 299 298 298 298 299 299 298 299 298 296 294 294 294 295 294 294 294 294 294 293 292
270 273 274 276 282 287 289 288 289 290 293 294 296 297 297 297 298 300 302 302 302 301 301 300 300 300 300 299 299 299 298 298 297 296 295 295 295 296 295 294 294 294 293
269 272 274 277 280 285 288 288 290 290 293 296 297 297 298 299 300 301 302 301 302 302 301 300 300 301 300 299 300 299 298 297 297 297 296 296 295 295 295 295 295 295 295
271 272 275 278 281 283 285 285 288 291 295 296 296 297 298 298 300 301 302 301 302 301 301 300 300 299 299 299 299 299 298 297 296 296 296 296 295 294 296 296 296 295 295
273 274 275 280 283 283 283 284 286 289 293 295 297 297 297 299 300 300 300 300 301 301 300 300 299 298 299 299 299 298 298 297 297 297 296 297 297 296 296 297 296 296 296
274 275 278 282 283 283 283 284 285 287 289 293 296 298 298 298 299 299 300 300 300 301 300 300 298 298 299 300 300 299 299 298 298 297 297 297 297 298 297 297 297 297 296
Height
5870 5869 5869 5868 5867 5866 5866 5865 5865 5865 5864 5864 5864 5864 5865 5865 5866 5867 5867 5868 5869 5869 5870 5870 5871 5871 5872 5872 5873 5873 5874 5874 5874 5875 5875 5875 5875 5875 5875 5876 5876 5877 5877
5870 5869 5868 5867 5866 5866 5865 5865 5864 5864 5863 5863 5863 5863 5863 5864 5864 5865 5866 5866 5867 5867 5868 5868 5869 5869 5869 5869 5870 5870 5871 5871 5872 5872 5872 5872 5872 5872 5872 5872 5873 5873 5874
5870 5869 5868 5867 5866 5865 5865 5864 5863 5863 5863 5862 5862 5862 5862 5863 5863 5864 5864 5864 5865 5865 5866 5866 5866 5867 5867 5867 5867 5868 5868 5868 5869 5869 5869 5869 5868 5868 5868 5869 5869 5869 5870
5869 5868 5867 5866 5865 5865 5864 5864 5863 5862 5862 5862 5861 5861 5861 5862 5862 5862 5863 5863 5863 5864 5864 5864 5864 5865 5865 5865 5865 5865 5865 5865 5865 5866 5866 5865 5865 5864 5864 5864 5865 5866 5866
5869 5868 5867 5866 5865 5865 5864 5863 5863 5862 5862 5862 5861 5861 5861 5861 5861 5861 5861 5861 5862 5862 5862 5863 5863 5863 5863 5863 5862 5862 5862 5862 5863 5863 5862 5862 5861 5859 5858 5859 5860 5862 5863
5868 5867 5867 5866 5865 5865 5864 5863 5863 5862 5862 5861 5861 5861 5860 5860 5861 5861 5860 5860 5860 5861 5861 5861 5861 5861 5861 5861 5860 5860 5860 5860 5860 5860 5859 5858 5857 5855 5853 5854 5856 5858 5859
5868 5867 5866 5866 5865 5864 5864 5863 5863 5862 5861 5861 5861 5861 5860 5860 5860 5860 5860 5859 5859 5859 5860 5860 5860 5860 5859 5859 5859 5858 5858 5858 5858 5857 5857 5856 5854 5853 5851 5851 5853 5855 5856
5867 5867 5866 5866 5865 5864 5864 5863 5862 5862 5861 5861 5861 5860 5860 5860 5860 5859 5859 5859 5859 5858 5858 5858 5858 5858 5858 5857 5857 5856 5856 5856 5855 5855 5854 5854 5853 5851 5850 5850 5851 5853 5853
5867 5867 5866 5865 5865 5864 5864 5863 5862 5862 5861 5861 5860 5860 5860 5859 5859 5859 5859 5858 5858 5857 5857 5857 5857 5856 5856 5855 5855 5854 5854 5854 5853 5852 5852 5851 5851 5850 5849 5849 5850 5850 5850
5867 5866 5866 5865 5864 5864 5863 5863 5862 5862 5861 5861 5860 5860 5859 5859 5859 5859 5858 5858 5857 5856 5856 5855 5855 5854 5854 5854 5853 5853 5852 5851 5851 5850 5849 5848 5848 5848 5847 5847 5847 5847 5847
5866 5866 5865 5865 5864 5863 5863 5862 5862 5861 5861 5860 5860 5859 5859 5858 5858 5857 5857 5857 5856 5855 5855 5854 5853 5853 5852 5852 5851 5850 5850 5849 5848 5847 5846 5845 5845 5845 5844 5844 5844 5843 5843
5865 5865 5864 5864 5864 5863 5863 5862 5862 5861 5861 5860 5859 5859 5858 5858 5857 5856 5856 5855 5855 5854 5853 5853 5852 5851 5851 5850 5849 5848 5847 5846 5845 5844 5843 5842 5841 5841 5841 5840 5839 5839 5838
5864 5864 5864 5864 5863 5862 5862 5862 5861 5861 5860 5859 5859 5858 5857 5856 5856 5855 5854 5853 5853 5852 5851 5851 5850 5849 5848 5847 5846 5845 5844 5843 5842 5841 5840 5839 5838 5837 5837 5836 5835 5834 5833
5863 5863 5863 5863 5862 5862 5861 5861 5860 5860 5859 5858 5858 5857 5856 5855 5855 5854 5853 5852 5851 5850 5849 5849 5848 5847 5846 5845 5844 5842 5841 5840 5839 5838 5837 5836 5835 5833 5832 5831 5830 5829 5828
5862 5862 5862 5862 5861 5861 5860 5860 5859 5859 5858 5857 5856 5856 5855 5854 5853 5852 5851 5850 5850 5848 5847 5846 5845 5844 5843 5842 5840 5839 5837 5836 5835 5834 5833 5831 5830 5829 5827 5826 5824 5823 5821
5861 5861 5861 5861 5860 5860 5859 5859 5858 5857 5857 5856 5855 5854 5853 5852 5851 5851 5849 5848 5847 5846 5845 5844 5842 5841 5839 5838 5836 5835 5834 5832 5831 5829 5828 5826 5825 5823 5822 5820 5818 5816 5814
5860 5860 5860 5859 5859 5858 5858 5857 5856 5856 5855 5854 5853 5852 5852 5851 5850 5848 5847 5846 5845 5844 5842 5841 5839 5837 5836 5834 5832 5831 5829 5827 5826 5824 5823 5821 5819 5817 5815 5813 5811 5809 5807
5858 5858 5858 5858 5858 5857 5856 5856 5855 5854 5853 5852 5851 5850 5849 5848 5847 5846 5844 5843 5842 5840 5839 5837 5835 5834 5832 5830 5828 5826 5824 5822 5820 5819 5817 5815 5812 5810 5808 5806 5804 5801 5799
5857 5856 5856 5856 5856 5855 5854 5854 5853 5852 5851 5850 5849 5848 5847 5845 5844 5843 5841 5839 5838 5836 5835 5833 5831 5829 5827 5825 5823 5821 5819 5817 5814 5812 5810 5808 5805 5803 5801 5798 5795 5793 5790
5855 5854 5854 5854 5854 5853 5852 5851 5850 5849 5848 5847 5846 5845 5844 5842 5840 5839 5837 5836 5834 5832 5830 5828 5826 5824 5822 5820 5817 5815 5813 5810 5808 5805 5803 5800 5798 5795 5793 5790 5787 5784 5781
5852 5852 5852 5851 5851 5850 5849 5848 5847 5846 5845 5844 5843 5842 5840 5838 5837 5835 5833 5831 5829 5828 5826 5824 5822 5819 5817 5814 5812 5809 5807 5804 5801 5799 5796 5793 5790 5788 5785 5782 5779 5775 5772
5850 5849 5849 5849 5848 5847 5846 5845 5844 5843 5842 5841 5839 5838 5836 5834 5833 5831 5829 5827 5825 5823 5821 5818 5816 5814 5811 5809 5806 5803 5801 5798 5795 5792 5789 5786 5783 5780 5777 5774 5770 5767 5763
5847 5846 5846 5845 5845 5844 5842 5841 5840 5839 5838 5837 5835 5834 5832 5830 5828 5826 5824 5822 5820 5818 5816 5813 5811 5808 5806 5803 5800 5797 5794 5791 5788 5785 5782 5779 5775 5772 5768 5765 5762 5758 5754
5843 5843 5842 5842 5841 5840 5839 5837 5836 5835 5834 5833 5831 5829 5827 5825 5823 5821 5819 5817 5814 5812 5810 5807 5805 5802 5799 5796 5793 5790 5787 5784 5781 5777 5774 5771 5767 5764 5760 5756 5752 5749 5745
5839 5839 5838 5837 5836 5835 5834 5833 5832 5831 5830 5828 5826 5824 5822 5820 5818 5816 5814 5811 5809 5806 5803 5800 5798 5795 5792 5789 5786 5783 5779 5776 5773 5769 5766 5762 5759 5755 5751 5747 5742 5738 5734
5835 5835 5834 5833 5832 5831 5830 5829 5827 5826 5825 5823 5821 5819 5817 5815 5812 5810 5808 5805 5802 5799 5796 5793 5790 5787 5784 5781 5777 5774 5771 5768 5764 5761 5757 5753 5750 5746 5742 5737 5732 5728 5724